TimeEDT,TemperatureF,Dew PointF,Humidity,Sea Level PressureIn,VisibilityMPH,Wind Direction,Wind SpeedMPH,Gust SpeedMPH,PrecipitationIn,Events,Conditions,WindDirDegrees,DateUTC
12:53 AM,39.0,37.0,93,30.02,10.0,Calm,Calm,-,N/A,,Clear,0,2012-10-10 04:53:00
1:53 AM,41.0,37.9,89,30.00,10.0,Calm,Calm,-,N/A,,Clear,0,2012-10-10 05:53:00
2:53 AM,36.0,35.1,97,29.99,10.0,Calm,Calm,-,N/A,,Clear,0,2012-10-10 06:53:00
3:41 AM,35.6,35.6,100,29.95,1.8,Calm,Calm,-,N/A,,Clear,0,2012-10-10 07:41:00
3:53 AM,37.0,35.1,93,29.96,4.0,Calm,Calm,-,N/A,,Clear,0,2012-10-10 07:53:00
4:14 AM,37.4,35.6,93,29.95,9.0,Variable,3.5,-,N/A,,Partly Cloudy,0,2012-10-10 08:14:00
4:53 AM,37.9,35.1,89,29.95,9.0,Calm,Calm,-,N/A,,Mostly Cloudy,0,2012-10-10 08:53:00
5:53 AM,42.1,39.0,89,29.95,10.0,SSW,4.6,-,N/A,,Overcast,210,2012-10-10 09:53:00
6:45 AM,42.8,39.2,87,29.92,10.0,Calm,Calm,-,N/A,,Overcast,0,2012-10-10 10:45:00
6:53 AM,43.0,41.0,93,29.93,9.0,West,3.5,-,N/A,,Overcast,280,2012-10-10 10:53:00
7:13 AM,44.6,42.8,93,29.92,10.0,Calm,Calm,-,N/A,,Overcast,0,2012-10-10 11:13:00
7:53 AM,45.0,42.1,90,29.92,10.0,Calm,Calm,-,N/A,,Overcast,0,2012-10-10 11:53:00
9:11 AM,48.2,44.6,87,29.90,10.0,SW,4.6,-,N/A,,Overcast,230,2012-10-10 13:11:00
9:21 AM,50.0,46.4,87,29.90,10.0,SSW,4.6,-,N/A,,Overcast,200,2012-10-10 13:21:00
9:53 AM,55.0,46.0,72,29.89,10.0,SW,12.7,19.6,N/A,,Mostly Cloudy,220,2012-10-10 13:53:00
10:53 AM,55.0,41.0,59,29.88,10.0,SW,12.7,-,N/A,,Mostly Cloudy,230,2012-10-10 14:53:00
11:53 AM,55.9,39.9,55,29.86,10.0,SSW,13.8,-,N/A,,Partly Cloudy,210,2012-10-10 15:53:00
12:53 PM,57.9,42.1,56,29.83,10.0,SSW,16.1,-,N/A,,Mostly Cloudy,210,2012-10-10 16:53:00
1:53 PM,57.0,41.0,55,29.80,10.0,SW,16.1,-,N/A,,Overcast,220,2012-10-10 17:53:00
2:53 PM,55.9,43.0,62,29.82,10.0,West,16.1,23.0,N/A,,Overcast,260,2012-10-10 18:53:00
3:53 PM,55.9,41.0,57,29.82,10.0,West,16.1,28.8,N/A,,Mostly Cloudy,270,2012-10-10 19:53:00
4:53 PM,48.0,42.1,80,29.87,3.0,NW,12.7,19.6,0.02,Rain,Light Rain,310,2012-10-10 20:53:00
5:53 PM,48.9,43.0,80,29.89,10.0,West,5.8,-,0.01,,Overcast,270,2012-10-10 21:53:00
6:53 PM,44.1,39.0,82,29.91,10.0,Calm,Calm,-,N/A,,Clear,0,2012-10-10 22:53:00
7:53 PM,46.0,39.0,76,29.94,10.0,West,9.2,-,0.00,Rain,Light Rain,260,2012-10-10 23:53:00
8:53 PM,45.0,37.9,76,29.96,10.0,WSW,5.8,-,0.00,,Overcast,240,2012-10-11 00:53:00
9:53 PM,45.0,39.0,80,29.98,10.0,WSW,6.9,-,N/A,,Overcast,240,2012-10-11 01:53:00
10:53 PM,44.1,37.9,79,30.00,10.0,West,6.9,-,0.01,Rain,Light Rain,260,2012-10-11 02:53:00
11:53 PM,43.0,37.9,82,30.01,10.0,WSW,4.6,-,0.00,,Overcast,250,2012-10-11 03:53:00